Weather History for Fort Leonard Wood, MO

Change the Weather History Date:

Tuesday, November 15, 2011

  Actual Average Record
Temperature  
Mean Temperature 56 °F -  
Max Temperature 63 °F 54 °F 71 °F (2001)
Min Temperature 50 °F 38 °F 24 °F (1997)
Degree Days  
Heating Degree Days 8    
Growing Degree Days 6 (Base 50)    
Moisture  
Dew Point 53 °F    
Average Humidity 89    
Maximum Humidity 100    
Minimum Humidity 72    
Precipitation  
Precipitation 0.00 in - - ()
Sea Level Pressure  
Sea Level Pressure 29.78 in    
Wind  
Wind Speed 6 mph (South)    
Max Wind Speed 13 mph    
Max Gust Speed -    
Visibility 10 miles    
Events      
Averages and records for this station are not official NWS values.
T = Trace of Precipitation, MM = Missing Value Source: NWS Daily Summary

Daily Weather History Graph

Daily Weather History Graph

Search for Another Location

Airport:

Trip Planner

Search our weather history database for the weather conditions in past years. The results will help you decide how hot, cold, wet, or windy it might be!

Date:

Astronomy

Nov. 15, 2011 Rise Set
Actual Time 6:48 AM CST 4:57 PM CST
Civil Twilight 6:20 AM CST 5:25 PM CST
Nautical Twilight 5:48 AM CST 5:57 PM CST
Astronomical Twilight 5:17 AM CST 6:28 PM CST
Moon 9:07 PM CST (11/15) 10:47 AM CST (11/15)
Length of Visible Light 11h 04m
Length of Day
10h 09m
Waning Gibbous, 79% of the Moon is Illuminated
Nov 15
Waning Gibbous
Nov 18
Last Quarter
Nov 25
New
Dec 2
First Quarter
Dec 10
Full

Hourly Weather History & Observations

Time (CST) Temp. Dew Point Humidity Pressure Visibility Wind Dir Wind Speed Gust Speed Precip Events Conditions
12:55 AM 51.6 °F 46.2 °F 82% 29.78 in 10.0 mi Calm Calm - N/A   Clear
1:55 AM 51.3 °F 47.3 °F 86% 29.75 in 10.0 mi SE 8.1 mph - N/A   Scattered Clouds
2:55 AM 51.1 °F 48.6 °F 91% 29.76 in 10.0 mi SE 6.9 mph - N/A   Overcast
3:55 AM 50.9 °F 49.5 °F 95% 29.75 in 10.0 mi SSE 8.1 mph - N/A   Overcast
4:55 AM 50.2 °F 49.6 °F 98% 29.75 in 10.0 mi SSE 8.1 mph - N/A   Overcast
5:55 AM 50.5 °F 50.4 °F 99% 29.74 in 10.0 mi SSE 6.9 mph - N/A   Overcast
7:55 AM 52.7 °F 52.3 °F 99% 29.77 in 10.0 mi South 8.1 mph - N/A   Overcast
8:47 AM 53.6 °F 53.6 °F 100% 29.78 in 10.0 mi Variable 6.9 mph - N/A   Overcast
8:55 AM 54.3 °F 53.4 °F 97% 29.78 in 10.0 mi South 9.2 mph - N/A   Overcast
9:46 AM 55.4 °F 53.6 °F 94% 29.80 in 10.0 mi South 8.1 mph - N/A   Overcast
9:55 AM 56.7 °F 54.5 °F 92% 29.80 in 10.0 mi South 8.1 mph - N/A   Overcast
10:24 AM 59.0 °F 55.4 °F 88% 29.81 in 10.0 mi SSW 9.2 mph - N/A   Overcast
10:55 AM 59.0 °F 55.0 °F 87% 29.80 in 10.0 mi Variable 5.8 mph - N/A   Overcast
11:24 AM 62.6 °F 55.4 °F 77% 29.78 in 10.0 mi South 5.8 mph - N/A   Overcast
11:55 AM 63.1 °F 54.5 °F 73% 29.77 in 10.0 mi Variable 6.9 mph - N/A   Mostly Cloudy
12:40 PM 62.6 °F 55.4 °F 77% 29.75 in 10.0 mi Variable 6.9 mph - N/A   Mostly Cloudy
12:55 PM 63.0 °F 54.9 °F 75% 29.75 in 10.0 mi Variable 5.8 mph - N/A   Overcast
1:55 PM 63.3 °F 55.0 °F 74% 29.75 in 10.0 mi Variable 5.8 mph - N/A   Overcast
2:55 PM 63.0 °F 55.0 °F 75% 29.75 in 10.0 mi South 6.9 mph - N/A   Overcast
3:55 PM 61.3 °F 55.6 °F 81% 29.76 in 10.0 mi South 4.6 mph - N/A   Overcast
4:55 PM 59.9 °F 55.4 °F 85% 29.77 in 10.0 mi SSW 3.5 mph - N/A   Overcast
5:55 PM 57.6 °F 55.6 °F 93% 29.79 in 10.0 mi South 4.6 mph - N/A   Mostly Cloudy
6:55 PM 55.8 °F 55.4 °F 99% 29.81 in 10.0 mi South 4.6 mph - N/A   Partly Cloudy
7:55 PM 54.9 °F 54.7 °F 99% 29.82 in 10.0 mi Calm Calm - N/A   Scattered Clouds
8:55 PM 54.0 °F 54.0 °F 100% 29.83 in 10.0 mi Calm Calm - N/A   Clear
9:55 PM 51.8 °F 51.8 °F 100% 29.84 in 7.0 mi NW 3.5 mph - N/A   Clear
10:55 PM 52.0 °F 52.0 °F 100% 29.86 in 10.0 mi NNW 6.9 mph - N/A   Clear
11:55 PM 52.2 °F 43.3 °F 72% 29.87 in 10.0 mi North 12.7 mph - N/A   Overcast